Location: Binningen
(47.7924°N, 8.7261°E)
Time: 22:31:15
(UTC+00:00)

Okean 2 Rocket - Pass Details

Date: 17 May 2021
Orbit: 617 x 641 km, 82.5° (Epoch: 24 June)

Event Time Altitude Azimuth Distance (km) Brightness Sun altitude
Rises 23:41:48 0° 344° (NNW) 2,903 7.7 -22.5°
Reaches altitude 10° 23:44:07 10° 337° (NNW) 1,993 6.5 -22.5°
Maximum altitude 23:48:15 41° 268° (W) 904 3.8 -22.4°
Enters shadow 23:48:29 41° 259° (W) 910 3.7 -22.4°
